| time (UTC) | temp F | wind direction | speed MPH | gust MPH | rain 1hr in | rain 24hr in | rain mn in | humidity % | barometer mb |
| 20260506014121 | 0 | 0.0 | 0.0 | 0.00 | 0.00 | 0.01 | 1010.5 | ||
| 20260506013121 | 0 | 0.0 | 0.0 | 0.00 | 0.00 | 0.01 | 1010.1 | ||
| 20260506012622 | 0 | 0.0 | 0.0 | 0.00 | 0.00 | 0.01 | 1010.1 | ||
| 20260506012121 | 60 | 340 | 2.0 | 2.0 | 0.00 | 0.00 | 0.01 | 92 | 1010.3 |
| 20260506011621 | 60 | 340 | 2.0 | 2.0 | 0.00 | 0.00 | 0.01 | 92 | 1010.3 |
| 20260506010619 | 60 | 345 | 1.0 | 1.0 | 0.00 | 0.00 | 0.01 | 95 | 1010.1 |
| 20260506010126 | 60 | 0.0 | 0.0 | 0.00 | 0.00 | 0.01 | 94 | 1010.1 | |
| 20260506005617 | 60 | 336 | 1.0 | 2.0 | 0.00 | 0.00 | 0.01 | 93 | 1009.8 |
| 20260506005118 | 61 | 7 | 2.0 | 2.0 | 0.00 | 0.00 | 0.01 | 89 | 1009.8 |
| 20260506004618 | 62 | 316 | 1.0 | 2.0 | 0.00 | 0.00 | 0.01 | 86 | 1010.0 |
| 20260506004118 | 64 | 343 | 0.0 | 1.0 | 0.00 | 0.00 | 0.00 | 80 | 1010.1 |
| 20260506003616 | 0 | 0.0 | 0.0 | 0.00 | 0.00 | 0.00 | 1009.8 | ||
| 20260506003117 | 0 | 0.0 | 0.0 | 0.00 | 0.00 | 0.00 | 1010.0 | ||
| 20260506002748 | 0 | 0.0 | 0.0 | 0.00 | 0.00 | 0.00 | 1010.1 | ||
| 20260506002147 | 0 | 0.0 | 0.0 | 0.00 | 0.00 | 0.00 | 1010.1 | ||
| 20260506001645 | 63 | 0.0 | 0.0 | 0.00 | 0.00 | 0.00 | 81 | 1010.1 | |
| 20260506001149 | 64 | 323 | 0.0 | 1.0 | 0.00 | 0.00 | 0.00 | 80 | 1009.8 |
| 20260506000645 | 65 | 0.0 | 0.0 | 0.00 | 0.00 | 0.00 | 74 | 1009.8 | |
| 20260506000144 | 65 | 0.0 | 0.0 | 0.00 | 0.00 | 0.00 | 74 | 1009.8 | |
| 20260505235809 | 65 | 343 | 0.0 | 1.0 | 0.00 | 0.00 | 0.00 | 73 | 1009.8 |
| 20260505231135 | 65 | 4 | 10.0 | 16.0 | 0.00 | 0.00 | 0.00 | 75 | 1009.1 |
| 20260505230133 | 64 | 339 | 3.0 | 3.0 | 0.00 | 0.00 | 0.00 | 78 | 1008.7 |
| 20260505225633 | 64 | 306 | 2.0 | 5.0 | 0.00 | 0.00 | 0.00 | 81 | 1008.7 |
| 20260505225135 | 64 | 307 | 3.0 | 6.0 | 0.00 | 0.00 | 0.00 | 81 | 1008.9 |
| 20260505224632 | 64 | 326 | 2.0 | 3.0 | 0.00 | 0.00 | 0.00 | 80 | 1008.7 |
| 20260505224232 | 64 | 335 | 5.0 | 8.0 | 0.00 | 0.00 | 0.00 | 81 | 1008.7 |
| 20260505223631 | 65 | 340 | 2.0 | 2.0 | 0.00 | 0.00 | 0.00 | 81 | 1008.7 |
| 20260505223232 | 66 | 320 | 3.0 | 5.0 | 0.00 | 0.00 | 0.00 | 74 | 1008.4 |
| 20260505222631 | 69 | 317 | 10.0 | 17.0 | 0.00 | 0.00 | 0.00 | 66 | 1008.4 |
| 20260505222131 | 69 | 313 | 3.0 | 5.0 | 0.00 | 0.00 | 0.00 | 63 | 1008.0 |
| 20260505221130 | 70 | 335 | 2.0 | 3.0 | 0.00 | 0.00 | 0.00 | 60 | 1007.5 |
| 20260505220630 | 71 | 325 | 1.0 | 2.0 | 0.00 | 0.00 | 0.00 | 57 | 1007.3 |
| 20260505220129 | 73 | 358 | 3.0 | 3.0 | 0.00 | 0.00 | 0.00 | 54 | 1007.3 |
| 20260505215127 | 77 | 318 | 2.0 | 3.0 | 0.00 | 0.00 | 0.00 | 41 | 1007.2 |
| 20260505214629 | 76 | 343 | 2.0 | 3.0 | 0.00 | 0.00 | 0.00 | 41 | 1007.0 |
| 20260505214128 | 76 | 352 | 1.0 | 2.0 | 0.00 | 0.00 | 0.00 | 41 | 1007.0 |
| 20260505213628 | 76 | 319 | 2.0 | 5.0 | 0.00 | 0.00 | 0.00 | 43 | 1006.8 |
| 20260505213126 | 76 | 341 | 1.0 | 2.0 | 0.00 | 0.00 | 0.00 | 42 | 1007.0 |
| 20260505212628 | 77 | 353 | 8.0 | 13.0 | 0.00 | 0.00 | 0.00 | 42 | 1007.3 |
| 20260505212130 | 77 | 322 | 2.0 | 5.0 | 0.00 | 0.00 | 0.00 | 42 | 1007.0 |
| 20260505211627 | 77 | 2 | 2.0 | 5.0 | 0.00 | 0.00 | 0.00 | 41 | 1007.0 |
| 20260505211125 | 77 | 339 | 5.0 | 9.0 | 0.00 | 0.00 | 0.00 | 40 | 1007.0 |
| 20260505210624 | 78 | 228 | 8.0 | 11.0 | 0.00 | 0.00 | 0.00 | 40 | 1007.0 |
| 20260505210125 | 79 | 323 | 3.0 | 6.0 | 0.00 | 0.00 | 0.00 | 40 | 1006.6 |
| 20260505205624 | 79 | 241 | 5.0 | 6.0 | 0.00 | 0.00 | 0.00 | 40 | 1006.3 |
| 20260505205124 | 78 | 44 | 7.0 | 11.0 | 0.00 | 0.00 | 0.00 | 40 | 1006.3 |
| 20260505204623 | 79 | 76 | 4.0 | 7.0 | 0.00 | 0.00 | 0.00 | 40 | 1006.3 |
| 20260505204124 | 79 | 336 | 6.0 | 11.0 | 0.00 | 0.00 | 0.00 | 40 | 1006.3 |
| 20260505203623 | 78 | 320 | 3.0 | 5.0 | 0.00 | 0.00 | 0.00 | 41 | 1006.1 |
| 20260505203122 | 78 | 322 | 4.0 | 6.0 | 0.00 | 0.00 | 0.00 | 40 | 1006.1 |
| 20260505202622 | 78 | 143 | 10.0 | 15.0 | 0.00 | 0.00 | 0.00 | 40 | 1006.3 |
| 20260505202123 | 78 | 258 | 5.0 | 7.0 | 0.00 | 0.00 | 0.00 | 40 | 1006.3 |
| 20260505201622 | 79 | 171 | 14.0 | 24.0 | 0.00 | 0.00 | 0.00 | 40 | 1006.3 |
| 20260505201121 | 79 | 320 | 2.0 | 5.0 | 0.00 | 0.00 | 0.00 | 40 | 1005.9 |
| 20260505200722 | 79 | 301 | 4.0 | 7.0 | 0.00 | 0.00 | 0.00 | 39 | 1006.3 |
| 20260505200123 | 78 | 318 | 3.0 | 7.0 | 0.00 | 0.00 | 0.00 | 39 | 1006.6 |
| 20260505195621 | 79 | 111 | 8.0 | 10.0 | 0.00 | 0.00 | 0.00 | 39 | 1006.6 |
| 20260505195120 | 79 | 323 | 1.0 | 2.0 | 0.00 | 0.00 | 0.00 | 40 | 1006.6 |
| 20260505194619 | 78 | 7 | 6.0 | 11.0 | 0.00 | 0.00 | 0.00 | 39 | 1006.8 |
| 20260505194120 | 77 | 350 | 1.0 | 2.0 | 0.00 | 0.00 | 0.00 | 39 | 1006.8 |
| 20260505193619 | 78 | 277 | 5.0 | 17.0 | 0.00 | 0.00 | 0.00 | 39 | 1006.6 |
| 20260505192618 | 78 | 144 | 5.0 | 10.0 | 0.00 | 0.00 | 0.00 | 39 | 1006.8 |
| 20260505192120 | 79 | 170 | 5.0 | 9.0 | 0.00 | 0.00 | 0.00 | 37 | 1007.0 |
| 20260505191122 | 79 | 312 | 6.0 | 10.0 | 0.00 | 0.00 | 0.00 | 37 | 1007.0 |
| 20260505190117 | 79 | 328 | 8.0 | 17.0 | 0.00 | 0.00 | 0.00 | 38 | 1006.6 |
| 20260505185618 | 80 | 177 | 10.0 | 16.0 | 0.00 | 0.00 | 0.00 | 37 | 1006.8 |
| 20260505185116 | 80 | 179 | 6.0 | 11.0 | 0.00 | 0.00 | 0.00 | 38 | 1007.0 |
| 20260505184647 | 80 | 329 | 2.0 | 5.0 | 0.00 | 0.00 | 0.00 | 37 | 1007.3 |
| 20260505184146 | 80 | 29 | 7.0 | 11.0 | 0.00 | 0.00 | 0.00 | 38 | 1007.2 |
| 20260505183646 | 79 | 321 | 4.0 | 8.0 | 0.00 | 0.00 | 0.00 | 37 | 1007.0 |
| 20260505183144 | 80 | 167 | 6.0 | 9.0 | 0.00 | 0.00 | 0.00 | 37 | 1007.3 |
| 20260505182643 | 81 | 272 | 7.0 | 13.0 | 0.00 | 0.00 | 0.00 | 36 | 1007.3 |
| 20260505182245 | 80 | 161 | 6.0 | 11.0 | 0.00 | 0.00 | 0.00 | 41 | 1007.2 |
| 20260505181644 | 80 | 290 | 11.0 | 20.0 | 0.00 | 0.00 | 0.00 | 38 | 1007.0 |
| 20260505181144 | 80 | 9 | 4.0 | 7.0 | 0.00 | 0.00 | 0.00 | 37 | 1007.3 |
| 20260505180644 | 79 | 300 | 7.0 | 13.0 | 0.00 | 0.00 | 0.00 | 38 | 1007.7 |
| 20260505175643 | 77 | 139 | 6.0 | 9.0 | 0.00 | 0.00 | 0.00 | 46 | 1007.7 |
| 20260505175142 | 78 | 216 | 7.0 | 10.0 | 0.00 | 0.00 | 0.00 | 43 | 1007.7 |
| 20260505174641 | 78 | 159 | 6.0 | 10.0 | 0.00 | 0.00 | 0.00 | 39 | 1007.7 |
| 20260505174142 | 78 | 287 | 5.0 | 9.0 | 0.00 | 0.00 | 0.00 | 37 | 1007.7 |
| 20260505173641 | 79 | 277 | 5.0 | 8.0 | 0.00 | 0.00 | 0.00 | 38 | 1008.2 |
| 20260505173141 | 79 | 20 | 9.0 | 20.0 | 0.00 | 0.00 | 0.00 | 37 | 1008.0 |
| 20260505172640 | 79 | 351 | 9.0 | 11.0 | 0.00 | 0.00 | 0.00 | 38 | 1008.0 |
| 20260505172139 | 79 | 162 | 10.0 | 13.0 | 0.00 | 0.00 | 0.00 | 39 | 1008.0 |
| 20260505171640 | 79 | 282 | 7.0 | 16.0 | 0.00 | 0.00 | 0.00 | 40 | 1008.0 |
| 20260505171139 | 78 | 352 | 8.0 | 15.0 | 0.00 | 0.00 | 0.00 | 38 | 1008.0 |
| 20260505160636 | 75 | 313 | 3.0 | 5.0 | 0.00 | 0.00 | 0.00 | 50 | 1009.1 |
| 20260505160134 | 74 | 147 | 11.0 | 14.0 | 0.00 | 0.00 | 0.00 | 51 | 1008.7 |
| 20260505153132 | 72 | 161 | 5.0 | 8.0 | 0.00 | 0.00 | 0.00 | 56 | 1009.8 |
| 20260505152632 | 72 | 187 | 8.0 | 10.0 | 0.00 | 0.00 | 0.00 | 55 | 1009.8 |
| 20260505152133 | 70 | 165 | 9.0 | 14.0 | 0.00 | 0.00 | 0.00 | 58 | 1009.8 |
| 20260505151632 | 70 | 146 | 10.0 | 13.0 | 0.00 | 0.00 | 0.00 | 58 | 1009.8 |
| 20260505151131 | 69 | 160 | 9.0 | 9.0 | 0.00 | 0.00 | 0.00 | 59 | 1010.1 |
| 20260505150630 | 69 | 227 | 7.0 | 9.0 | 0.00 | 0.00 | 0.00 | 58 | 1009.8 |
| 20260505150129 | 68 | 125 | 5.0 | 8.0 | 0.00 | 0.00 | 0.00 | 60 | 1010.1 |
| 20260505140627 | 63 | 120 | 6.0 | 7.0 | 0.00 | 0.00 | 0.00 | 68 | 1010.3 |
| 20260505130122 | 58 | 146 | 7.0 | 10.0 | 0.00 | 0.00 | 0.00 | 76 | 1010.1 |
| 20260505124621 | 56 | 163 | 9.0 | 11.0 | 0.00 | 0.00 | 0.00 | 79 | 1010.3 |
| 20260505124120 | 55 | 170 | 5.0 | 7.0 | 0.00 | 0.00 | 0.00 | 80 | 1010.1 |
| 20260505123720 | 55 | 173 | 6.0 | 8.0 | 0.00 | 0.00 | 0.00 | 81 | 1010.1 |
| 20260505123121 | 54 | 123 | 8.0 | 14.0 | 0.00 | 0.00 | 0.00 | 81 | 1010.1 |
| 20260505122119 | 53 | 146 | 9.0 | 13.0 | 0.00 | 0.00 | 0.00 | 84 | 1010.1 |
| 20260505121622 | 52 | 142 | 8.0 | 11.0 | 0.00 | 0.00 | 0.00 | 86 | 1010.1 |
| 20260505121120 | 51 | 192 | 3.0 | 3.0 | 0.00 | 0.00 | 0.00 | 87 | 1010.1 |
| 20260505120619 | 51 | 206 | 5.0 | 7.0 | 0.00 | 0.00 | 0.00 | 87 | 1010.1 |
| 20260505120118 | 52 | 213 | 5.0 | 7.0 | 0.00 | 0.00 | 0.00 | 86 | 1010.3 |
| 20260505115619 | 52 | 161 | 7.0 | 9.0 | 0.00 | 0.00 | 0.00 | 85 | 1010.1 |
| 20260505115118 | 52 | 57 | 3.0 | 3.0 | 0.00 | 0.00 | 0.00 | 84 | 1010.1 |
| 20260505114617 | 53 | 143 | 4.0 | 7.0 | 0.00 | 0.00 | 0.00 | 83 | 1010.5 |
| 20260505113619 | 53 | 276 | 2.0 | 2.0 | 0.00 | 0.00 | 0.00 | 83 | 1010.5 |
| 20260505112616 | 53 | 141 | 8.0 | 10.0 | 0.00 | 0.00 | 0.00 | 84 | 1010.7 |
| 20260505112145 | 52 | 121 | 4.0 | 6.0 | 0.00 | 0.00 | 0.00 | 85 | 1010.5 |
| 20260505111646 | 51 | 90 | 5.0 | 10.0 | 0.00 | 0.00 | 0.00 | 86 | 1010.1 |
| 20260505110645 | 51 | 156 | 5.0 | 6.0 | 0.00 | 0.00 | 0.00 | 86 | 1010.1 |
| 20260505110144 | 50 | 186 | 5.0 | 7.0 | 0.00 | 0.00 | 0.00 | 87 | 1010.1 |
| 20260505102141 | 48 | 107 | 4.0 | 6.0 | 0.00 | 0.00 | 0.00 | 91 | 1009.8 |
| 20260505101642 | 48 | 173 | 5.0 | 7.0 | 0.00 | 0.00 | 0.00 | 90 | 1009.8 |
| 20260505101142 | 48 | 59 | 3.0 | 5.0 | 0.00 | 0.00 | 0.00 | 90 | 1009.4 |
| 20260505100641 | 48 | 9 | 3.0 | 3.0 | 0.00 | 0.00 | 0.00 | 90 | 1009.6 |
| 20260505100140 | 48 | 38 | 3.0 | 3.0 | 0.00 | 0.00 | 0.00 | 90 | 1009.8 |
| 20260505095641 | 48 | 19 | 2.0 | 3.0 | 0.00 | 0.00 | 0.00 | 90 | 1009.8 |
| 20260505095140 | 48 | 126 | 3.0 | 6.0 | 0.00 | 0.00 | 0.00 | 90 | 1009.8 |
| 20260505094639 | 48 | 86 | 3.0 | 5.0 | 0.00 | 0.00 | 0.00 | 90 | 1009.8 |
| 20260505094139 | 48 | 21 | 2.0 | 3.0 | 0.00 | 0.00 | 0.00 | 89 | 1009.8 |
| 20260505093640 | 49 | 59 | 3.0 | 3.0 | 0.00 | 0.00 | 0.00 | 88 | 1009.8 |
| 20260505093139 | 49 | 259 | 5.0 | 7.0 | 0.00 | 0.00 | 0.00 | 87 | 1009.6 |
| 20260505092640 | 49 | 319 | 2.0 | 2.0 | 0.00 | 0.00 | 0.00 | 87 | 1009.4 |
| 20260505092140 | 49 | 267 | 5.0 | 6.0 | 0.00 | 0.00 | 0.00 | 87 | 1009.8 |
| 20260505091639 | 49 | 18 | 2.0 | 2.0 | 0.00 | 0.00 | 0.00 | 87 | 1009.8 |
| 20260505091138 | 49 | 332 | 2.0 | 2.0 | 0.00 | 0.00 | 0.00 | 87 | 1009.8 |
| 20260505090638 | 49 | 141 | 5.0 | 6.0 | 0.00 | 0.00 | 0.00 | 86 | 1009.8 |
| 20260505090136 | 50 | 253 | 3.0 | 8.0 | 0.00 | 0.00 | 0.00 | 86 | 1010.0 |
| 20260505085639 | 50 | 342 | 2.0 | 5.0 | 0.00 | 0.00 | 0.00 | 85 | 1009.8 |
| 20260505085136 | 50 | 224 | 5.0 | 8.0 | 0.00 | 0.00 | 0.00 | 85 | 1009.8 |
| 20260505084636 | 50 | 317 | 1.0 | 2.0 | 0.00 | 0.00 | 0.00 | 85 | 1010.0 |
| 20260505084136 | 50 | 21 | 2.0 | 2.0 | 0.00 | 0.00 | 0.00 | 85 | 1010.1 |
| 20260505083135 | 50 | 356 | 1.0 | 2.0 | 0.00 | 0.00 | 0.00 | 85 | 1010.1 |
| 20260505082734 | 50 | 8 | 2.0 | 2.0 | 0.00 | 0.00 | 0.00 | 85 | 1010.1 |
| 20260505082134 | 50 | 360 | 1.0 | 2.0 | 0.00 | 0.00 | 0.00 | 85 | 1010.1 |
| 20260505081635 | 50 | 275 | 2.0 | 3.0 | 0.00 | 0.00 | 0.00 | 85 | 1010.1 |
| 20260505080635 | 50 | 323 | 3.0 | 5.0 | 0.00 | 0.00 | 0.00 | 85 | 1009.8 |
| 20260505080133 | 50 | 37 | 3.0 | 3.0 | 0.00 | 0.00 | 0.00 | 84 | 1009.8 |
| 20260505075634 | 50 | 203 | 3.0 | 3.0 | 0.00 | 0.00 | 0.00 | 84 | 1010.0 |
| 20260505075134 | 50 | 3 | 3.0 | 3.0 | 0.00 | 0.00 | 0.00 | 84 | 1010.1 |
| 20260505074734 | 50 | 88 | 3.0 | 5.0 | 0.00 | 0.00 | 0.00 | 83 | 1010.1 |
| 20260505074137 | 50 | 205 | 4.0 | 8.0 | 0.00 | 0.00 | 0.00 | 83 | 1010.1 |
| 20260505073632 | 50 | 334 | 1.0 | 2.0 | 0.00 | 0.00 | 0.00 | 83 | 1010.1 |
| 20260505073131 | 50 | 0 | 1.0 | 2.0 | 0.00 | 0.00 | 0.00 | 82 | 1010.1 |
| 20260505072630 | 50 | 358 | 1.0 | 2.0 | 0.00 | 0.00 | 0.00 | 82 | 1010.1 |
| 20260505072130 | 50 | 350 | 3.0 | 3.0 | 0.00 | 0.00 | 0.00 | 82 | 1010.1 |
| 20260505071629 | 50 | 183 | 3.0 | 5.0 | 0.00 | 0.00 | 0.00 | 82 | 1010.1 |
| 20260505071130 | 50 | 25 | 2.0 | 3.0 | 0.00 | 0.00 | 0.00 | 83 | 1010.3 |
| 20260505070629 | 50 | 91 | 2.0 | 3.0 | 0.00 | 0.00 | 0.00 | 82 | 1010.5 |
| 20260505070128 | 50 | 51 | 2.0 | 3.0 | 0.00 | 0.00 | 0.00 | 82 | 1010.5 |
| 20260505065629 | 50 | 133 | 3.0 | 5.0 | 0.00 | 0.00 | 0.00 | 81 | 1010.1 |
| 20260505065129 | 51 | 6 | 3.0 | 5.0 | 0.00 | 0.00 | 0.00 | 81 | 1010.5 |
| 20260505064628 | 51 | 58 | 3.0 | 5.0 | 0.00 | 0.00 | 0.00 | 81 | 1010.5 |
| 20260505064127 | 51 | 193 | 4.0 | 6.0 | 0.00 | 0.00 | 0.00 | 80 | 1010.1 |
| 20260505063125 | 51 | 128 | 3.0 | 5.0 | 0.00 | 0.00 | 0.00 | 80 | 1010.5 |
| 20260505062126 | 51 | 131 | 3.0 | 3.0 | 0.00 | 0.00 | 0.00 | 80 | 1010.5 |
| 20260505061625 | 51 | 145 | 5.0 | 10.0 | 0.00 | 0.00 | 0.00 | 79 | 1010.5 |
| 20260505061124 | 51 | 137 | 6.0 | 7.0 | 0.00 | 0.00 | 0.00 | 79 | 1010.5 |
| 20260505060627 | 51 | 144 | 3.0 | 7.0 | 0.00 | 0.00 | 0.00 | 79 | 1010.5 |
| 20260505055725 | 51 | 183 | 7.0 | 9.0 | 0.00 | 0.00 | 0.00 | 78 | 1010.5 |
| 20260505055125 | 51 | 188 | 6.0 | 8.0 | 0.00 | 0.00 | 0.00 | 79 | 1010.5 |
| 20260505054624 | 51 | 99 | 4.0 | 6.0 | 0.00 | 0.00 | 0.00 | 80 | 1010.5 |
| 20260505054123 | 50 | 34 | 3.0 | 3.0 | 0.00 | 0.00 | 0.00 | 80 | 1010.5 |
| 20260505053624 | 51 | 71 | 6.0 | 7.0 | 0.00 | 0.00 | 0.00 | 80 | 1010.5 |
| 20260505053121 | 51 | 45 | 3.0 | 5.0 | 0.00 | 0.00 | 0.00 | 80 | 1010.5 |
| 20260505052622 | 51 | 357 | 2.0 | 2.0 | 0.00 | 0.00 | 0.00 | 79 | 1010.5 |
| 20260505052122 | 51 | 18 | 4.0 | 6.0 | 0.00 | 0.00 | 0.00 | 79 | 1010.5 |
| 20260505051621 | 51 | 61 | 4.0 | 5.0 | 0.00 | 0.00 | 0.00 | 79 | 1010.5 |
| 20260505051122 | 51 | 70 | 2.0 | 5.0 | 0.00 | 0.00 | 0.00 | 79 | 1010.5 |
| 20260505050121 | 51 | 27 | 2.0 | 3.0 | 0.00 | 0.00 | 0.00 | 78 | 1010.9 |
| 20260505041117 | 53 | 11 | 2.0 | 3.0 | 0.00 | 0.00 | 0.00 | 74 | 1010.5 |
| 20260505040618 | 53 | 137 | 4.0 | 6.0 | 0.00 | 0.00 | 0.00 | 74 | 1010.5 |
| 20260505040117 | 53 | 13 | 3.0 | 5.0 | 0.00 | 0.00 | 0.00 | 73 | 1010.5 |
| 20260505035616 | 53 | 59 | 4.0 | 6.0 | 0.00 | 0.00 | 0.00 | 73 | 1010.5 |
| 20260505035145 | 53 | 50 | 3.0 | 5.0 | 0.00 | 0.00 | 0.00 | 72 | 1010.5 |
| 20260505034644 | 54 | 128 | 6.0 | 10.0 | 0.00 | 0.00 | 0.00 | 72 | 1010.5 |
| 20260505034145 | 54 | 48 | 4.0 | 5.0 | 0.00 | 0.00 | 0.00 | 71 | 1010.3 |
| 20260505033644 | 54 | 120 | 4.0 | 6.0 | 0.00 | 0.00 | 0.00 | 71 | 1010.1 |
| 20260505033143 | 54 | 116 | 4.0 | 9.0 | 0.00 | 0.00 | 0.00 | 70 | 1010.1 |
| 20260505032645 | 54 | 113 | 4.0 | 6.0 | 0.00 | 0.00 | 0.00 | 70 | 1010.1 |
| 20260505032144 | 54 | 218 | 5.0 | 6.0 | 0.00 | 0.00 | 0.00 | 69 | 1010.1 |
| 20260505031643 | 55 | 57 | 4.0 | 6.0 | 0.00 | 0.00 | 0.00 | 68 | 1010.1 |
| 20260505031142 | 55 | 69 | 3.0 | 5.0 | 0.00 | 0.00 | 0.00 | 68 | 1010.5 |
| 20260505030643 | 55 | 42 | 2.0 | 3.0 | 0.00 | 0.00 | 0.00 | 68 | 1010.5 |
| 20260505030143 | 55 | 71 | 3.0 | 3.0 | 0.00 | 0.00 | 0.00 | 67 | 1010.1 |
| 20260505025642 | 56 | 40 | 3.0 | 3.0 | 0.00 | 0.00 | 0.00 | 66 | 1010.3 |
| 20260505025143 | 56 | 79 | 3.0 | 5.0 | 0.00 | 0.00 | 0.00 | 65 | 1010.5 |
| 20260505024642 | 56 | 172 | 5.0 | 7.0 | 0.00 | 0.00 | 0.00 | 64 | 1010.5 |
| 20260505024141 | 57 | 90 | 5.0 | 7.0 | 0.00 | 0.00 | 0.00 | 63 | 1010.5 |
| 20260505023641 | 57 | 114 | 6.0 | 7.0 | 0.00 | 0.00 | 0.00 | 63 | 1010.5 |
| 20260505023141 | 57 | 69 | 3.0 | 5.0 | 0.00 | 0.00 | 0.00 | 62 | 1010.5 |
| 20260505022641 | 57 | 49 | 4.0 | 7.0 | 0.00 | 0.00 | 0.00 | 61 | 1010.5 |
| 20260505022140 | 57 | 83 | 4.0 | 6.0 | 0.00 | 0.00 | 0.00 | 60 | 1010.5 |
| 20260505021639 | 57 | 79 | 4.0 | 5.0 | 0.00 | 0.00 | 0.00 | 59 | 1010.5 |
| 20260505021139 | 58 | 38 | 2.0 | 5.0 | 0.00 | 0.00 | 0.00 | 58 | 1010.5 |
| 20260505020743 | 58 | 80 | 4.0 | 6.0 | 0.00 | 0.00 | 0.00 | 57 | 1010.5 |
| 20260505020139 | 58 | 39 | 3.0 | 5.0 | 0.00 | 0.00 | 0.00 | 56 | 1010.5 |
| 20260505015638 | 58 | 306 | 3.0 | 5.0 | 0.00 | 0.00 | 0.00 | 55 | 1010.5 |
| 20260505015138 | 57 | 115 | 5.0 | 7.0 | 0.00 | 0.00 | 0.00 | 57 | 1010.3 |
| 20260505014639 | 58 | 343 | 1.0 | 2.0 | 0.00 | 0.00 | 0.00 | 55 | 1010.1 |